Location: Arrakis Observatory
(44.1122°N, 95.7153°W)
Time: 06:01:58
(UTC-05:00)

Daily predictions for brighter satellites

Satellite Brightness Start Highest point End
(mag) Time Altitude Azimuth Time Altitude Azimuth Time Altitude Azimuth
CENTAUR R/B 3.2 21:19:47 10° S 21:24:47 29° ESE 21:30:23 10° NE
H-2A R/B 3.1 21:20:44 10° SE 21:24:57 29° ENE 21:29:16 10° N
Tsikada Rocket 4.2 21:20:21 10° N 21:26:49 89° WSW 21:33:14 10° S
Cosmos 1725 Rocket 4.1 21:20:54 10° S 21:27:05 84° W 21:33:21 10° N
Cosmos 2208 Rocket 4.0 21:23:47 10° SSW 21:28:58 79° ESE 21:34:10 10° NNE
COSMOS 2487 4.3 21:25:54 10° SW 21:29:10 37° WNW 21:32:29 10° N
Cosmos 1340 Rocket 4.3 21:26:22 10° SE 21:29:22 20° E 21:32:24 10° NE
SL-16 R/B 2.3 21:23:43 10° NNW 21:29:23 68° ENE 21:35:02 10° SE
Cosmos 1378 Rocket 3.7 21:27:09 10° SSW 21:31:27 78° W 21:35:47 10° N
Cosmos 990 Rocket 4.2 21:26:56 10° NNW 21:32:05 57° ENE 21:37:14 10° SE
DNEPR-1 R/B 4.2 21:28:31 10° SW 21:32:46 65° NW 21:37:38 10° NNE
Shenzhou-11 Module 2.0 21:29:51 10° W 21:32:48 62° S 21:35:45 10° ESE
ELECTRON R/B 4.3 21:32:18 10° N 21:34:43 64° E 21:37:11 10° SSE
Cosmos 1975 Rocket 3.2 21:31:09 10° S 21:35:22 54° E 21:39:36 10° NNE
Okean 1 Rocket 3.6 21:31:11 10° NNW 21:35:30 62° W 21:39:46 10° S
YAOGAN 6 4.3 21:32:30 10° SSW 21:35:53 34° W 21:39:16 10° NNW
ATLAS 3B R/B 3.3 21:31:31 10° SW 21:38:38 65° NW 21:45:29 10° NNE
Cosmos 1242 Rocket 2.5 21:35:20 10° N 21:39:00 74° E 21:42:36 10° SSE
Aureole 2 Rocket 3.4 21:38:22 10° N 21:40:55 25° ENE 21:43:07 11° ESE
CZ-4B DEB 4.4 21:44:05 10° SSE 21:47:33 81° ENE 21:51:03 10° N
MetOp-B 4.5 21:45:08 10° SE 21:50:19 53° ENE 21:55:31 10° N
Cosmos 1544 Rocket 4.1 21:46:15 10° N 21:50:31 44° ENE 21:54:28 12° SSE
Cosmos 2084 3.3 21:49:10 10° SSW 21:53:28 78° SE 21:57:34 10° NE
Cosmos 2150 Rocket 4.2 21:48:41 10° NNW 21:54:03 63° ENE 21:58:51 12° SSE
CZ-4C R/B 4.0 21:49:22 10° NNW 21:55:36 34° NE 22:02:32 10° E
Cosmos 1975 3.8 21:53:04 10° NNW 21:56:58 47° W 22:00:48 10° SSW
SJ 16-02 2.5 21:58:20 10° N 22:02:14 29° ENE 22:05:18 14° ESE
SL-08 RB Rocket 3.8 21:58:55 12° SSE 22:02:59 60° ENE 22:07:30 10° N
Cosmos 2233 Rocket 4.4 21:59:46 10° SSW 22:05:53 68° W 22:12:05 10° N
Resurs 01 Rocket 3.4 22:02:15 10° SSW 22:06:06 29° W 22:09:58 10° NW
Cosmos 1536 Rocket 4.2 22:05:19 14° SSE 22:08:47 38° E 22:12:56 10° NNE
ATLAS CENTAUR R/B 4.4 22:07:33 10° W 22:09:01 11° WSW 22:10:30 10° SW
Cosmos 1666 4.1 22:05:45 10° NNW 22:09:22 38° W 22:12:58 10° SSW
Cosmos 2360 Rocket 2.4 22:04:04 10° NNW 22:09:40 60° ENE 22:14:04 17° SE
Cosmos 1980 Rocket 4.5 22:07:53 10° NW 22:11:45 19° W 22:15:38 10° SW
Cosmos 540 Rocket 4.0 22:07:08 10° S 22:11:54 39° ESE 22:16:40 10° NE
Helios 1B rocket 3.9 22:09:21 10° NE 22:12:31 21° E 22:13:58 18° ESE
Cosmos 2219 Rocket 3.8 22:08:59 10° N 22:13:19 22° NE 22:17:36 10° E
Cosmos 1937 Rocket 3.8 22:08:55 10° NNW 22:14:00 63° WSW 22:18:49 11° S
Cosmos 2298 Rocket 4.1 22:09:35 10° NNW 22:14:55 79° WSW 22:19:30 14° SSE
Cosmos 1763 Rocket 3.7 22:14:38 10° SSW 22:19:56 75° WNW 22:25:15 10° NNE
Cosmos 1743 4.5 22:18:41 10° NNW 22:22:03 29° W 22:25:23 10° SSW
Meteor 2-9 Rocket 4.3 22:17:32 10° NNW 22:22:52 73° W 22:28:02 11° S
Cosmos 841 Rocket 3.5 22:20:18 10° SSW 22:25:33 87° ESE 22:30:52 10° NNE
USA 32 4.1 22:21:37 10° N 22:26:53 80° W 22:31:43 12° S
SPOT 5 2.9 22:28:41 22° SE 22:31:21 56° ENE 22:35:52 10° N
BREEZE-M R/B 3.5 22:28:18 10° W 22:31:45 40° NNW 22:34:10 10° NE
Cosmos 2333 Rocket 3.5 22:30:58 10° N 22:35:54 29° NE 22:39:38 15° ESE
Cosmos 372 Rocket 4.2 22:30:58 10° NNW 22:36:02 58° ENE 22:39:00 24° SE
Meteor 1-23 Rocket 4.1 22:30:58 11° S 22:36:15 74° E 22:41:49 10° NNE
Terra 2.8 22:33:59 20° ESE 22:36:28 34° ENE 22:40:44 10° N
COSMOS 2428 3.3 22:33:45 10° NNW 22:39:12 45° ENE 22:42:36 21° ESE
Lacrosse 5 rocket 1.3 22:36:42 10° NW 22:41:04 87° NE 22:43:05 29° SE
CARTOSAT-1 4.3 22:39:20 24° ESE 22:41:18 39° ENE 22:45:19 10° N
USA 234 3.5 22:35:48 10° NE 22:42:21 74° NW 22:48:53 10° WSW
CZ-2C R/B 4.2 22:41:20 20° ESE 22:44:16 34° ENE 22:49:17 10° N
BREEZE M DEB (TANK) 3.5 22:37:39 10° WNW 22:46:10 43° SW 22:47:56 26° S
Abrixas rocket 3.2 22:43:50 10° W 22:46:58 46° NNW 22:50:07 10° ENE
Cosmos 1833 4.3 22:42:17 10° SSW 22:48:02 82° WNW 22:53:46 10° NNE
Meteor 2-4 Rocket 4.4 22:43:07 10° SSW 22:48:26 53° WNW 22:53:55 10° N
ISS -1.4 22:45:57 10° WNW 22:48:43 24° N 22:51:28 10° NE
Spot 1 4.4 22:47:20 29° SE 22:49:01 48° ENE 22:52:56 10° N
ERS-1 Rocket 3.4 22:47:46 18° S 22:51:27 58° W 22:56:25 10° NNW
Iridium 90 3.5 22:53:12 68° NW 22:53:12 68° NW 22:55:14 10° N
Cosmos 1025 Rocket 3.2 22:51:30 31° SSE 22:53:16 52° E 22:57:32 10° NNE
Cosmos 1356 4.4 22:50:43 12° SSW 22:53:43 45° WNW 22:57:05 10° N
Cosmos 2034 Rocket 3.9 22:48:16 13° S 22:53:45 89° E 22:59:58 10° N
Cosmos 1515 4.2 22:51:55 15° SSW 22:54:56 57° W 22:58:45 10° N
USA 245 4.0 22:53:53 23° SSW 22:55:52 48° W 23:00:07 10° NNW
Tiangong 2 0.9 22:53:46 10° W 22:56:55 70° S 22:57:22 57° SE
Cosmos 1464 Rocket 4.4 22:51:00 10° SSW 22:57:18 65° W 23:03:40 10° N
Cosmos 2297 Rocket 4.1 22:59:43 13° E 22:59:43 13° E 23:02:07 10° ENE
SPOT 1/Viking Rocket 3.6 22:57:27 26° S 23:00:29 80° WSW 23:05:41 10° NNW
Cosmos 2322 3.8 22:56:51 10° NNW 23:02:35 73° WSW 23:05:41 28° S
Cosmos 2227 Rocket 3.8 23:02:54 16° E 23:02:56 16° E 23:06:15 10° ENE
Cosmos 2322 Rocket 4.0 22:59:14 10° NW 23:03:31 23° W 23:07:47 10° SSW
H-2A R/B 3.2 23:00:19 13° SSW 23:04:15 36° W 23:08:54 10° NNW
Meteor 1-29 3.0 23:01:18 10° NNE 23:04:44 57° E 23:05:14 51° SE
Cosmos 2237 Rocket 3.6 23:02:55 10° N 23:07:51 29° NE 23:11:02 18° E
Shenzhou-11 Module 3.8 23:06:06 10° W 23:07:38 20° SW 23:07:38 20° SW
YAOGAN 11 4.4 23:09:09 36° SE 23:10:41 56° ENE 23:15:08 10° N
Cosmos 1125 Rocket 3.5 23:06:20 10° NNW 23:11:37 78° WSW 23:13:59 33° S
SL-16 R/B 4.3 23:09:08 10° WNW 23:12:52 18° W 23:16:36 10° SW
Cosmos 1066 Rocket 4.1 23:12:12 31° S 23:14:49 71° E 23:20:16 10° NNE
CENTAUR R/B 3.2 23:08:57 10° SW 23:14:55 58° NW 23:21:53 10° NNE
Helios 1A 4.0 23:18:35 24° SSW 23:20:30 38° W 23:24:25 10° NNW
Cosmos 1634 Rocket 4.1 23:17:54 31° SSE 23:20:54 61° E 23:27:08 10° NNE
Mayak 1.2 23:27:27 10° ENE 23:27:37 10° E 23:27:37 10° E
Okean 2 4.2 23:27:00 24° SW 23:29:13 48° WNW 23:33:17 10° N
Cosmos 1766 3.6 23:26:26 10° N 23:30:19 50° ENE 23:30:44 48° ESE
Meteor 1-22 Rocket 4.1 23:26:36 10° N 23:31:57 67° ENE 23:33:40 42° SE
Cosmos 2219 3.2 23:30:45 33° S 23:33:18 68° ESE 23:39:02 10° NNE
Cosmos 1892 Rocket 3.8 23:34:27 47° ESE 23:34:51 49° E 23:39:03 10° NNE
SAR-Lupe-4 4.2 23:34:50 41° ENE 23:34:55 41° ENE 23:38:18 10° N
Cosmos 1544 3.1 23:35:33 10° NNW 23:39:15 68° W 23:39:37 63° SW
SJ 16-02 2.9 23:36:59 10° NW 23:40:46 28° W 23:42:18 22° SW
Cosmos 1356 Rocket 4.4 23:39:35 26° SW 23:41:39 46° WNW 23:45:48 10° N
Nimbus 7 Rocket 4.3 23:36:17 10° NNE 23:42:12 90° WNW 23:45:13 31° SSW
Okean 1-7 Rocket 3.6 23:43:19 46° SSW 23:44:39 79° W 23:49:13 10° N
CZ-4C R/B 2.9 23:37:36 10° NW 23:44:49 76° WSW 23:48:29 36° SSE
Helios 1B rocket 3.9 23:44:07 10° N 23:47:54 35° WNW 23:50:19 18° SW
Cosmos 2228 3.0 23:45:05 10° N 23:49:22 67° E 23:49:50 61° ESE
COSMOS 2455 3.4 23:50:51 37° SE 23:51:25 38° ESE 23:56:57 10° NE
SAR-Lupe-1 4.4 23:53:01 56° ENE 23:53:01 56° ENE 23:56:23 10° N
Cosmos 2360 Rocket 4.0 23:49:05 10° NW 23:53:10 21° W 23:55:51 15° SW
Cosmos 1726 Rocket 3.5 23:49:20 10° N 23:53:46 84° W 23:54:26 64° S
